Regional Weather Roundup
Issued by NWS

Home | Current Version | Previous Version | Text Only | Print | Product List | Glossary Off
Versions: 1 2 3 4 5 6 7 8 9 10 11 12 13 14 15 16 17 18 19 20 21 22 23 24 25 26 27 28 29 30 31 32 33 34 35 36 37 38 39 40 41 42 43 44 45 46 47 48 49 50

000
ASUS44 KMEG 312310
RWRTN
TENNESSEE HOURLY STATE WEATHER ROUNDUP
NATIONAL WEATHER SERVICE MEMPHIS TN
600 PM CDT FRI JUL 31 2015

TNZ002-004-019-021-049-052-054-088>092-010000-
WEST TENNESSEE

CITY           SKY/WX    TMP DP  RH WIND       PRES   REMARKS
MEMPHIS INTL   MOSUNNY   91  62  37 N12       30.01F HX  91
NWS MEMPHIS      N/A     89 N/A N/A MISG        N/A
JACKSON        SUNNY     91  62  37 N12       30.01F HX  91
DYERSBURG        N/A    N/A N/A N/A MISG        N/A
PARIS          SUNNY     84  66  54 N5        30.04F
LEXINGTON      SUNNY     86  63  45 N7        30.01F
$$

TNZ008-025-027-028-033-062-065-066-010000-
NORTH MIDDLE TENNESSEE

CITY           SKY/WX    TMP DP  RH WIND       PRES   REMARKS
NASHVILLE      MOSUNNY   88  59  37 N13       30.01F
CLARKSVILLE    SUNNY     86  64  47 N8        30.02F
SMYRNA         SUNNY     91  61  36 N10       30.01F HX  91
CROSSVILLE     SUNNY     81  58  45 N7        30.07R
$$

TNZ061-075-076-078-094-096-097-010000-
SOUTH MIDDLE TENNESSEE

CITY           SKY/WX    TMP DP  RH WIND       PRES   REMARKS
FAYETTEVILLE   SUNNY     84  57  39 NE10      30.00S
TULLAHOMA      SUNNY     84  55  37 N8        30.03S
WINCHESTER     SUNNY     84  61  45 N8        30.01S
MCMINNVILLE    SUNNY     84  61  45 N10       30.03R
COLUMBIA       SUNNY     88  63  42 N8        30.00S
SHELBYVILLE    SUNNY     88  63  42 N10       30.02R
$$

TNZ017-018-042-046-047-010000-
NORTHEAST TENNESSEE

CITY           SKY/WX    TMP DP  RH WIND       PRES   REMARKS
TRI CITIES     MOSUNNY   85  55  35 N5        30.01S
ELIZABETHTON   CLEAR     81  57  44 CALM      30.02S
$$

TNZ012-013-036-069-073-074-010000-
CENTRAL EAST TENNESSEE

CITY           SKY/WX    TMP DP  RH WIND       PRES   REMARKS
KNOXVILLE      NOT AVBL
OAK RIDGE      SUNNY     86  58  38 CALM      30.01S
GATLINBURG     CLEAR     82  55  39 N6        29.99S
MORRISTOWN     CLEAR     81  57  44 CALM      30.02S
$$

TNZ083-085-099-010000-
SOUTHEAST TENNESSEE

CITY           SKY/WX    TMP DP  RH WIND       PRES   REMARKS
CHATTANOOGA    MOSUNNY   87  59  38 N10       29.98S
$$

SKY/WX REPORTED AS FAIR MEANS FEW OR NO CLOUDS BELOW
12 THOUSAND FEET.



USA.gov is the U.S. government's official web portal to all federal, state and local government web resources and services.